GW6666 Weather Reports


Display with metric or nautical units.
time (UTC)temp
F
wind
direction
speed
MPH
gust
MPH
rain 1hr
in
rain 24hr
in
rain mn
in
humidity
%
barometer
mb
20260506172514 61 206 3.0 11.0 0.02 0.32 0.32 94 1008.7
20260506172009 61 232 5.0 6.0 0.00 0.32 0.32 94 1008.9
20260506171507 61 185 4.0 4.0 0.00 0.32 0.32 94 1008.8
20260506171004 61 207 5.0 7.0 0.02 0.32 0.32 93 1008.9
20260506170501 61 151 1.0 9.0 0.05 0.32 0.32 93 1008.9
20260506165959 61 176 3.0 7.0 0.02 0.31 0.31 92 1009.0
20260506165458 61 238 4.0 12.0 0.02 0.31 0.31 91 1008.9
20260506164953 61 200 8.0 15.0 0.00 0.30 0.30 91 1009.0
20260506164450 61 242 6.0 7.0 0.00 0.30 0.30 91 1008.8
20260506163948 62 181 5.0 9.0 0.00 0.30 0.30 91 1008.9
20260506163443 62 207 11.0 13.0 0.02 0.30 0.30 92 1008.9
20260506162938 62 154 2.0 9.0 0.02 0.30 0.30 92 1008.9
20260506162436 62 172 2.0 11.0 0.02 0.30 0.30 92 1008.9
20260506161933 62 172 0.0 5.0 0.02 0.29 0.29 92 1008.8
20260506161431 62 166 2.0 4.0 0.02 0.29 0.29 92 1008.8
20260506160923 62 234 8.0 9.0 0.02 0.29 0.29 93 1008.8
20260506160420 62 181 7.0 7.0 0.07 0.29 0.29 93 1008.7
20260506155917 61 144 2.0 4.0 0.09 0.29 0.29 93 1008.9
20260506155414 61 227 6.0 6.0 0.12 0.28 0.28 92 1009.0
20260506153536 61 182 6.0 12.0 0.31 0.22 0.22 90 1010.0
20260506153033 62 199 11.0 14.0 0.31 0.19 0.19 90 1009.9
20260506152530 62 158 1.0 11.0 0.12 0.16 0.16 89 1010.2
20260506152029 62 197 6.0 6.0 0.02 0.14 0.14 89 1010.0
20260506151526 62 202 10.0 10.0 0.02 0.14 0.14 88 1010.2
20260506151023 63 139 6.0 15.0 0.02 0.14 0.14 88 1010.1
20260506150520 63 201 4.0 7.0 0.02 0.13 0.13 88 1009.7
20260506150017 63 195 6.0 12.0 0.02 0.13 0.13 88 1009.9
20260506145514 63 166 6.0 11.0 0.05 0.13 0.13 88 1009.6
20260506145011 63 215 4.0 6.0 0.05 0.13 0.13 88 1009.7
20260506144508 63 208 0.0 3.0 0.12 0.12 0.12 89 1009.8
20260506144005 63 192 2.0 4.0 0.14 0.11 0.11 88 1009.5
20260506143503 63 180 2.0 4.0 0.12 0.10 0.10 88 1009.7
20260506143001 63 150 0.0 6.0 0.14 0.09 0.09 87 1009.5
20260506142458 63 182 4.0 6.0 0.21 0.08 0.08 86 1009.9
20260506141956 63 198 4.0 7.0 0.17 0.07 0.07 84 1010.0
20260506141454 63 187 4.0 7.0 0.07 0.04 0.04 83 1010.0
20260506140952 64 201 3.0 7.0 0.05 0.04 0.04 83 1009.8
20260506140449 64 170 3.0 9.0 0.02 0.03 0.03 81 1009.8
20260506135945 64 199 6.0 10.0 0.02 0.03 0.03 81 1009.9
20260506135443 64 207 3.0 6.0 0.02 0.03 0.03 82 1009.8
20260506134938 64 203 5.0 7.0 0.02 0.03 0.03 82 1009.6
20260506134435 64 223 7.0 8.0 0.02 0.02 0.02 82 1009.9
20260506133932 64 187 5.0 9.0 0.05 0.02 0.02 82 1009.9
20260506133429 64 189 5.0 7.0 0.05 0.02 0.02 81 1009.9
20260506132926 64 218 5.0 12.0 0.02 0.02 0.02 79 1010.0
20260506132423 64 170 3.0 7.0 0.02 0.01 0.01 80 1010.0
20260506131920 64 208 4.0 7.0 0.02 0.01 0.01 79 1010.0
20260506131416 64 213 6.0 10.0 0.00 0.01 0.01 78 1010.1
20260506130914 64 181 3.0 8.0 0.02 0.01 0.01 78 1010.0
20260506130410 65 232 4.0 12.0 0.02 0.01 0.01 78 1010.2
20260506125909 65 188 8.0 10.0 0.02 0.00 0.00 78 1010.1
20260506125406 65 184 7.0 10.0 0.02 0.00 0.00 77 1010.2
20260506124904 66 206 4.0 11.0 0.00 0.00 0.00 74 1010.1
20260506124401 66 187 4.0 12.0 0.00 0.00 0.00 73 1010.0
20260506123859 66 180 4.0 11.0 0.00 0.00 0.00 71 1010.0
20260506123357 66 213 10.0 13.0 0.00 0.00 0.00 71 1009.9
20260506122854 66 224 10.0 13.0 0.00 0.00 0.00 70 1009.9
20260506122350 67 228 5.0 15.0 0.00 0.00 0.00 69 1009.6
20260506121849 67 191 5.0 9.0 0.00 0.00 0.00 69 1009.8
20260506121346 67 179 1.0 9.0 0.00 0.00 0.00 69 1009.8
20260506120843 67 235 3.0 7.0 0.00 0.00 0.00 69 1009.6
20260506120340 67 209 5.0 15.0 0.00 0.00 0.00 69 1009.7
20260506115837 67 186 3.0 9.0 0.00 0.00 0.00 69 1009.6
20260506115336 66 242 4.0 5.0 0.00 0.00 0.00 69 1009.7
20260506114834 66 192 5.0 5.0 0.00 0.00 0.00 69 1009.7
20260506114331 66 145 3.0 4.0 0.00 0.00 0.00 69 1009.6
20260506113830 66 191 5.0 9.0 0.00 0.00 0.00 69 1009.7
20260506113327 66 195 5.0 12.0 0.00 0.00 0.00 69 1009.8
20260506112823 66 185 3.0 11.0 0.00 0.00 0.00 69 1009.8
20260506112320 66 209 6.0 11.0 0.00 0.00 0.00 69 1009.6
20260506111818 66 206 7.0 17.0 0.00 0.00 0.00 69 1009.7
20260506111316 66 217 13.0 13.0 0.00 0.00 0.00 69 1009.7
20260506110813 66 217 6.0 11.0 0.00 0.00 0.00 69 1009.7
20260506110310 66 148 4.0 11.0 0.00 0.00 0.00 69 1009.7
20260506105806 66 190 10.0 10.0 0.00 0.00 0.00 70 1009.6
20260506105305 66 159 2.0 6.0 0.00 0.00 0.00 69 1009.4
20260506104801 66 196 5.0 12.0 0.00 0.00 0.00 69 1009.3
20260506104258 66 89 1.0 9.0 0.00 0.00 0.00 69 1009.0
20260506103756 66 178 5.0 7.0 0.00 0.00 0.00 70 1009.0
20260506103253 66 180 2.0 9.0 0.00 0.00 0.00 70 1009.0
20260506102750 66 202 1.0 6.0 0.00 0.00 0.00 70 1008.9
20260506102248 66 222 4.0 6.0 0.00 0.00 0.00 70 1009.2
20260506101745 66 113 1.0 6.0 0.00 0.00 0.00 70 1009.0
20260506101241 66 201 4.0 10.0 0.00 0.00 0.00 69 1009.2
20260506100740 66 190 3.0 7.0 0.00 0.00 0.00 69 1009.0
20260506100237 66 193 4.0 8.0 0.00 0.00 0.00 69 1009.0
20260506095736 66 197 5.0 6.0 0.00 0.00 0.00 69 1009.3
20260506095232 66 181 5.0 7.0 0.00 0.00 0.00 69 1009.4
20260506094729 66 203 5.0 9.0 0.00 0.00 0.00 68 1009.3
20260506094227 66 190 4.0 4.0 0.00 0.00 0.00 68 1009.2
20260506093726 66 168 4.0 10.0 0.00 0.00 0.00 68 1008.9
20260506093222 66 237 4.0 7.0 0.00 0.00 0.00 67 1009.2
20260506092720 66 195 4.0 10.0 0.00 0.00 0.00 67 1009.0
20260506092218 66 195 5.0 7.0 0.00 0.00 0.00 67 1009.2
20260506091715 66 227 3.0 9.0 0.00 0.00 0.00 66 1009.0
20260506091212 66 189 7.0 11.0 0.00 0.00 0.00 66 1009.4
20260506090710 67 209 2.0 5.0 0.00 0.00 0.00 65 1009.0
20260506090207 67 204 4.0 4.0 0.00 0.00 0.00 65 1009.2
20260506085704 67 147 2.0 8.0 0.00 0.00 0.00 64 1009.3
20260506085200 67 202 3.0 5.0 0.00 0.00 0.00 64 1009.2
20260506084656 67 181 2.0 6.0 0.00 0.00 0.00 64 1009.5
20260506084153 67 210 3.0 6.0 0.00 0.00 0.00 63 1009.4
20260506083650 67 144 0.0 11.0 0.00 0.00 0.00 63 1009.6
20260506083148 67 190 2.0 7.0 0.00 0.00 0.00 63 1009.5
20260506082645 67 199 1.0 2.0 0.00 0.00 0.00 63 1009.3
20260506082144 67 179 4.0 7.0 0.00 0.00 0.00 62 1009.3
20260506081643 67 210 3.0 8.0 0.00 0.00 0.00 62 1009.5
20260506081140 67 230 2.0 7.0 0.00 0.00 0.00 61 1009.5
20260506080638 67 223 2.0 6.0 0.00 0.00 0.00 61 1009.4
20260506080134 67 215 3.0 10.0 0.00 0.00 0.00 61 1009.4
20260506073118 68 255 2.0 6.0 0.00 0.00 0.00 59 1009.5
20260506072615 68 184 7.0 7.0 0.00 0.00 0.00 58 1009.5
20260506072113 68 213 2.0 7.0 0.00 0.00 0.00 58 1009.6
20260506071610 68 245 5.0 7.0 0.00 0.00 0.00 58 1009.3
20260506071108 68 194 5.0 9.0 0.00 0.00 0.00 57 1009.4
20260506070605 68 224 5.0 9.0 0.00 0.00 0.00 57 1009.6
20260506062039 68 219 0.0 6.0 0.00 0.00 0.00 56 1009.8
20260506061534 68 207 6.0 9.0 0.00 0.00 0.00 55 1009.7
20260506061032 69 176 2.0 7.0 0.00 0.00 0.00 55 1010.0
20260506060531 69 195 5.0 10.0 0.00 0.00 0.00 55 1010.1
20260506050959 69 193 2.0 9.0 0.00 0.00 0.00 53 1010.3
20260506050457 69 186 3.0 8.0 0.00 0.00 0.00 53 1010.2
20260506044948 69 177 3.0 6.0 0.00 0.00 0.00 52 1010.5
20260506044446 69 56 0.0 9.0 0.00 0.00 0.00 52 1010.4
20260506043942 69 212 3.0 7.0 0.00 0.00 0.00 52 1010.6
20260506043440 69 180 3.0 6.0 0.00 0.00 0.00 52 1010.4
20260506042937 69 76 1.0 6.0 0.00 0.00 0.00 51 1010.4
20260506042437 69 250 3.0 5.0 0.00 0.00 0.00 51 1010.5
20260506041934 70 229 4.0 5.0 0.00 0.00 0.00 51 1010.6
20260506041432 70 222 5.0 5.0 0.00 0.00 0.00 50 1010.5
20260506040929 70 245 3.0 7.0 0.00 0.00 0.00 50 1010.3
20260506040426 70 168 3.0 8.0 0.00 0.00 0.00 50 1010.4
20260506035922 70 196 3.0 10.0 0.00 0.08 0.08 49 1010.4
20260506035420 70 60 1.0 5.0 0.00 0.08 0.08 50 1010.3
20260506034917 71 101 0.0 6.0 0.00 0.08 0.08 49 1010.4
20260506034414 71 28 1.0 5.0 0.00 0.08 0.08 48 1010.4
20260506033911 71 235 7.0 9.0 0.00 0.08 0.08 48 1010.3
20260506033408 71 236 6.0 15.0 0.00 0.08 0.08 47 1010.5
20260506032904 71 180 4.0 6.0 0.00 0.08 0.08 47 1010.1
20260506032402 71 175 4.0 10.0 0.00 0.08 0.08 47 1010.3
20260506031858 71 204 8.0 10.0 0.00 0.08 0.08 47 1010.2
20260506031356 72 124 1.0 5.0 0.00 0.08 0.08 46 1010.3
20260506030853 72 268 4.0 6.0 0.00 0.08 0.08 46 1010.3
20260506030351 72 191 3.0 9.0 0.00 0.08 0.08 46 1010.3
20260506025848 72 152 1.0 6.0 0.00 0.08 0.08 45 1010.3
20260506025345 72 181 4.0 11.0 0.00 0.08 0.08 45 1010.2
20260506024842 72 177 4.0 4.0 0.00 0.08 0.08 45 1010.3
20260506024338 72 122 4.0 7.0 0.00 0.08 0.08 44 1010.3
20260506023834 73 136 3.0 10.0 0.00 0.08 0.08 44 1010.2
20260506023331 73 169 3.0 5.0 0.00 0.08 0.08 44 1010.2
20260506022828 73 286 1.0 11.0 0.00 0.08 0.08 43 1010.1
20260506022326 73 199 5.0 8.0 0.00 0.08 0.08 43 1010.2
20260506021824 73 189 4.0 13.0 0.00 0.08 0.08 43 1010.1
20260506021320 73 66 3.0 8.0 0.00 0.08 0.08 42 1010.4
20260506020817 74 174 7.0 10.0 0.00 0.08 0.08 42 1010.3
20260506020315 74 212 4.0 8.0 0.00 0.08 0.08 41 1010.1
20260506015812 74 152 4.0 12.0 0.00 0.08 0.08 41 1010.2
20260506015310 74 129 2.0 8.0 0.00 0.08 0.08 41 1009.9
20260506014806 74 162 2.0 9.0 0.00 0.08 0.08 40 1010.2
20260506014303 75 167 2.0 9.0 0.00 0.08 0.08 40 1010.2
20260506013800 75 183 8.0 13.0 0.00 0.08 0.08 40 1010.0
20260506013257 75 114 3.0 9.0 0.00 0.08 0.08 39 1010.1
20260506012754 75 226 2.0 6.0 0.00 0.08 0.08 39 1010.0
20260506012250 75 215 6.0 6.0 0.00 0.08 0.08 39 1009.8
20260506011748 75 187 7.0 9.0 0.00 0.08 0.08 38 1009.8
20260506011244 75 220 4.0 14.0 0.00 0.08 0.08 38 1009.7
20260506010742 76 253 4.0 13.0 0.00 0.08 0.08 38 1009.7
20260506010239 76 177 5.0 19.0 0.00 0.08 0.08 38 1009.5
20260506005737 76 173 2.0 10.0 0.00 0.08 0.08 38 1009.5
20260506005233 76 218 12.0 17.0 0.00 0.08 0.08 37 1009.4
20260506004729 76 188 5.0 13.0 0.00 0.08 0.08 38 1009.4
20260506004227 76 188 6.0 12.0 0.00 0.08 0.08 37 1009.3
20260506003723 76 206 9.0 12.0 0.00 0.08 0.08 37 1009.6
20260506003219 76 191 3.0 17.0 0.00 0.08 0.08 37 1009.4
20260506002715 76 228 3.0 6.0 0.00 0.08 0.08 38 1009.3
20260506002212 76 207 1.0 12.0 0.00 0.08 0.08 38 1009.2
20260506001708 76 269 2.0 12.0 0.00 0.08 0.08 38 1008.9
20260506001205 77 186 3.0 8.0 0.00 0.08 0.08 38 1008.8
20260506000702 77 215 8.0 11.0 0.00 0.08 0.08 37 1008.9
20260506000159 77 212 9.0 9.0 0.00 0.08 0.08 37 1008.9
20260505235657 77 177 4.0 13.0 0.00 0.08 0.08 37 1008.8
20260505235154 77 185 3.0 11.0 0.00 0.08 0.08 36 1008.9
20260505234651 78 164 4.0 12.0 0.00 0.08 0.08 36 1008.8
20260505234148 78 188 8.0 18.0 0.00 0.08 0.08 36 1008.7
20260505233645 78 169 6.0 18.0 0.00 0.08 0.08 36 1008.8
20260505233142 78 180 7.0 10.0 0.00 0.08 0.08 36 1008.8
20260505232640 78 193 6.0 12.0 0.00 0.08 0.08 36 1008.8
20260505232137 78 156 2.0 10.0 0.00 0.08 0.08 35 1008.5
20260505231634 79 224 4.0 8.0 0.00 0.08 0.08 35 1008.6
20260505231133 79 213 7.0 14.0 0.00 0.08 0.08 35 1008.5
20260505230630 79 154 5.0 16.0 0.00 0.08 0.08 34 1008.6
20260505230126 79 231 6.0 13.0 0.00 0.08 0.08 34 1008.4
20260505225623 79 174 6.0 17.0 0.00 0.08 0.08 34 1008.6
20260505225119 79 219 14.0 19.0 0.00 0.08 0.08 34 1008.3
20260505224616 80 224 12.0 15.0 0.00 0.08 0.08 34 1008.5
20260505224113 80 197 9.0 13.0 0.00 0.08 0.08 34 1008.4
20260505223610 81 249 7.0 15.0 0.00 0.08 0.08 33 1008.4
20260505223107 81 217 2.0 11.0 0.00 0.08 0.08 34 1008.4
20260505222603 81 197 2.0 10.0 0.00 0.08 0.08 33 1008.5
20260505222059 82 196 6.0 20.0 0.00 0.08 0.08 32 1008.4
20260505221556 82 198 4.0 19.0 0.00 0.08 0.08 32 1008.2
20260505221053 82 215 8.0 14.0 0.00 0.08 0.08 31 1008.3
20260505220550 81 216 8.0 17.0 0.00 0.08 0.08 31 1008.2
20260505220048 81 194 4.0 14.0 0.00 0.08 0.08 32 1008.0
20260505215546 82 202 8.0 10.0 0.00 0.08 0.08 33 1008.0
20260505215043 82 214 2.0 14.0 0.00 0.08 0.08 33 1008.1
20260505214541 82 197 6.0 10.0 0.00 0.08 0.08 34 1008.2
20260505214038 82 196 8.0 16.0 0.00 0.08 0.08 32 1008.4
20260505213536 82 200 5.0 18.0 0.00 0.08 0.08 33 1008.3
20260505213031 82 197 15.0 15.0 0.00 0.08 0.08 33 1008.2
20260505212528 82 180 4.0 15.0 0.00 0.08 0.08 33 1008.1
20260505212026 82 187 5.0 11.0 0.00 0.08 0.08 32 1008.1
20260505211523 82 212 13.0 17.0 0.00 0.08 0.08 32 1008.0
20260505211019 82 176 6.0 15.0 0.00 0.08 0.08 32 1008.2
20260505210516 83 238 7.0 14.0 0.00 0.08 0.08 31 1008.2
20260505210013 83 206 4.0 15.0 0.00 0.08 0.08 30 1008.2
20260505205511 83 210 9.0 13.0 0.00 0.08 0.08 31 1008.1
20260505205008 83 195 8.0 12.0 0.00 0.08 0.08 31 1008.2
20260505204506 83 180 7.0 22.0 0.00 0.08 0.08 30 1008.0
20260505204003 83 223 11.0 18.0 0.00 0.08 0.08 30 1008.0
20260505203459 83 192 8.0 18.0 0.00 0.08 0.08 31 1008.1
20260505202955 83 197 10.0 12.0 0.00 0.08 0.08 31 1008.0
20260505202452 83 201 7.0 16.0 0.00 0.08 0.08 31 1008.0
20260505201948 83 190 8.0 13.0 0.00 0.08 0.08 31 1007.8
20260505201445 82 225 5.0 11.0 0.00 0.08 0.08 32 1008.1
20260505200943 82 211 12.0 21.0 0.00 0.08 0.08 31 1008.1
20260505200441 82 199 8.0 11.0 0.00 0.08 0.08 32 1008.3
20260505195936 83 197 13.0 17.0 0.00 0.08 0.08 31 1008.2
20260505195433 82 201 5.0 15.0 0.00 0.08 0.08 32 1008.3
20260505194931 83 184 6.0 15.0 0.00 0.08 0.08 32 1008.4
20260505194428 83 231 11.0 15.0 0.00 0.08 0.08 33 1008.1
20260505193928 84 188 6.0 11.0 0.00 0.08 0.08 32 1008.2
20260505193426 84 225 7.0 20.0 0.00 0.08 0.08 32 1008.4
20260505192924 85 214 9.0 19.0 0.00 0.08 0.08 31 1008.4
20260505192421 83 174 2.0 10.0 0.00 0.08 0.08 34 1008.4
20260505191919 84 149 7.0 9.0 0.00 0.08 0.08 35 1008.6
20260505191417 83 227 5.0 9.0 0.00 0.08 0.08 33 1008.2
20260505190914 83 205 4.0 15.0 0.00 0.08 0.08 33 1008.5
20260505190409 84 208 13.0 20.0 0.00 0.08 0.08 30 1008.4
20260505185904 84 208 4.0 9.0 0.00 0.08 0.08 32 1008.7
20260505185402 84 204 3.0 11.0 0.00 0.08 0.08 31 1008.8
20260505184858 83 219 8.0 15.0 0.00 0.08 0.08 31 1008.8
20260505184355 83 212 4.0 15.0 0.00 0.08 0.08 30 1008.9
20260505183852 83 198 10.0 15.0 0.00 0.08 0.08 29 1008.6
20260505183349 83 204 5.0 13.0 0.00 0.08 0.08 31 1009.0
20260505182846 83 185 11.0 16.0 0.00 0.08 0.08 30 1008.9
20260505182342 83 212 5.0 13.0 0.00 0.08 0.08 30 1009.4
20260505181839 83 227 10.0 11.0 0.00 0.08 0.08 30 1008.9
20260505181336 83 283 11.0 13.0 0.00 0.08 0.08 30 1009.0
20260505180833 82 206 3.0 11.0 0.00 0.08 0.08 32 1009.3
20260505180329 82 162 4.0 18.0 0.00 0.08 0.08 32 1009.4
20260505175826 83 209 11.0 18.0 0.00 0.08 0.08 32 1009.7
20260505175322 82 226 9.0 14.0 0.00 0.08 0.08 33 1009.5
20260505174819 83 193 9.0 13.0 0.00 0.08 0.08 32 1009.3
20260505174316 82 212 10.0 13.0 0.00 0.08 0.08 33 1009.6
20260505173812 82 220 8.0 19.0 0.00 0.08 0.08 33 1009.7
20260505173309 82 190 7.0 17.0 0.00 0.08 0.08 32 1009.6